[[{"header":{"parameterUnit":"m.s-1","parameterCategory":1,"la1":30.2991,"la2":30.254,"lo1":-89.0895,"lo2":-89.0444,"dy":0.0017,"dx":0.0017,"nx":28,"ny":28,"refTime":"2025-07-20T09:00:00:Z","depth":0,"parameterNumber":2,"parameterNumberName":"U-component_of_WINDS"},"data":[0,0,0,0,0,0,0,0,0,0,0,0,0,0,0,0,0,0,0,0,0,0,0,0,0,0,0,0,0,0,0,0,0,0,0,0,0,0,0,0,0,0,0,0,0,0,0,0,0,0,0,0,0,0,0,0,0,0,1.9404,1.9406,0,1.9541,1.9543,1.9544,1.9589,1.9588,1.9588,1.9587,1.9732,1.9737,1.9741,0,0,0,0,0,0,0,0,0,0,0,0,0,1.9187,1.9191,1.9404,1.9406,1.9407,1.9541,1.9543,1.9544,1.9589,1.9588,1.9588,1.9587,1.9731,1.9736,1.9741,0,0,0,0,0,0,0,0,0,0,0,0,0,1.9298,1.9192,1.9404,1.9446,1.9451,1.954,1.9543,1.9545,1.9589,1.9588,1.9587,1.9587,1.9729,1.9736,1.9742,1.9801,0,0,1.9762,1.9765,0,0,0,0,0,0,0,0,1.9292,1.9306,1.9438,1.9443,1.9449,1.9547,1.9519,1.9631,1.9589,1.9537,1.9587,1.9586,1.9672,1.9683,1.9711,1.9808,1.9814,1.9763,1.9767,1.977,1.9772,0,0,0,0,0,0,0,1.9284,1.9301,1.9458,1.944,1.9446,1.946,1.9474,1.9541,1.9608,1.9541,1.9545,1.956,1.9675,1.9704,1.9715,1.9817,1.9763,1.9769,1.9773,1.9775,1.9971,1.9973,0,0,0,0,0,0,1.9269,1.9294,1.9454,1.9462,1.9366,1.9464,1.9481,1.9516,1.9607,1.962,1.9561,1.9562,1.9693,1.9707,1.972,1.9796,1.977,1.9776,1.978,1.997,1.9972,1.9973,0,0,0,0,0,0,1.9264,1.9283,1.9449,1.9379,1.9401,1.9469,1.9509,1.952,1.9549,1.9622,1.9635,1.9578,1.9693,1.9711,1.9781,1.9802,1.9779,1.9785,1.9969,1.9971,1.9972,1.9948,0,0,0,0,0,0,1.9257,1.9281,1.9302,1.9379,1.9405,1.9505,1.951,1.9523,1.956,1.9563,1.9642,1.9654,1.9694,1.9771,1.9787,1.981,1.979,1.9967,1.997,1.9972,1.9947,1.9949,1.995,0,0,0,0,0,1.925,1.9291,1.9303,1.9322,1.9433,1.9506,1.9521,1.9564,1.9561,1.9585,1.9632,1.9652,1.9797,1.9777,1.9797,1.9822,1.9966,1.9969,1.9972,1.9947,1.9948,1.995,0,0,0,0,0,0,1.9216,1.9302,1.9316,1.9383,1.9437,1.9514,1.9544,1.9565,1.9622,1.9622,1.9675,1.9693,1.9759,1.9798,1.9775,1.9885,1.9883,1.9889,1.9857,1.9859,1.9861,1.985,1.9796,0,0,0,0,0,1.9216,1.9266,1.9339,1.9392,1.9418,1.9476,1.951,1.9538,1.9597,1.962,1.9673,1.973,1.9789,1.9826,1.9884,1.9953,1.9972,1.9981,1.9982,1.9983,1.9988,2.0028,2.0033,1.9982,1.9982,1.9982,0,0,1.9217,1.927,1.9299,1.9386,1.9431,1.9484,1.9495,1.955,1.9591,1.963,1.9699,1.9739,1.9807,1.9877,1.9911,1.9911,2.0006,1.9986,1.9986,1.9991,2.0032,2.0037,2.0041,1.9984,1.9984,1.9983,0,0,1.9246,1.9291,1.9339,1.9384,1.9452,1.9491,1.9502,1.9577,1.9604,1.9674,1.9705,1.9755,1.9854,1.9902,1.9939,1.9987,2.0008,2.0005,2.0012,2.0051,2.0055,2.0059,2.0077,2.0083,2.001,2.001,2.001,0,1.9239,1.9318,1.9362,1.9416,1.9454,1.9491,1.9541,1.9583,1.9667,1.9694,1.9693,1.9819,1.9868,1.995,1.9961,1.999,2.0007,1.9996,2.0051,2.0055,2.0059,2.0077,2.0084,2.0009,2.0009,2.0009,2.0009,0,1.9307,1.9362,1.9393,1.9472,1.9514,1.9566,1.9619,1.9657,1.9683,1.9722,1.9794,1.9853,1.9924,1.9946,1.9972,2.0033,2.0031,2.004,2.0039,2.0063,2.008,2.0087,2.0008,2.0008,2.0008,2.0009,0,0,1.9317,1.942,1.9431,1.9467,1.9545,1.9589,1.9644,1.9712,1.9744,1.9801,1.9849,1.9933,1.9942,1.9984,2.0016,2.005,2.0086,2.0056,2.0058,2.0059,2.0157,2.015,2.0157,2.01,2.0102,2.0103,2.0152,0,1.9356,1.9454,1.9496,1.9574,1.9626,1.9662,1.9711,1.9765,1.9803,1.9855,1.9899,1.9957,1.9964,1.999,2.0026,2.0074,2.0106,2.0071,2.0147,2.0149,2.0128,2.0166,2.0158,2.0201,2.0159,2.016,2.0161,0,1.9415,1.9471,1.9554,1.9627,1.965,1.9692,1.9759,1.9807,1.987,1.9896,1.9943,1.9973,2.0034,2.0029,2.0115,2.009,2.0124,2.0152,2.0155,2.0164,2.0156,2.0176,2.0216,2.0222,2.0172,2.0171,2.017,0,1.9414,1.9511,1.9574,1.9604,1.969,1.9719,1.9757,1.9818,1.9857,1.9916,1.9942,2.0007,2.0043,2.0095,2.0143,2.0134,2.0224,2.0223,2.0249,2.0248,2.0266,2.0264,2.0312,2.0288,2.0287,2.0287,2.0287,0,1.9454,1.9503,1.9575,1.9613,1.9671,1.972,1.9776,1.9816,1.9871,1.992,1.9956,2.0001,2.0062,2.0115,2.0154,2.0219,2.0235,2.0259,2.0269,2.0256,2.0253,2.0279,2.0277,2.0289,2.0289,2.0288,2.0288,0,1.9462,1.9512,1.9583,1.9659,1.9679,1.9718,1.9784,1.9824,1.9865,1.9926,1.9943,2.0008,2.0073,2.0126,2.0211,2.0237,2.0306,2.0317,2.0284,2.0289,2.0312,2.0309,2.0378,2.039,2.0357,2.0358,2.0358,0,1.9484,1.9523,1.9603,1.9637,1.9674,1.9729,1.9768,1.9819,1.9859,1.9934,1.9965,2.0032,2.0089,2.0191,2.0247,2.0313,2.0326,2.0346,2.0336,2.0322,2.0327,2.0324,2.0328,2.0347,2.0347,2.0347,2.0347,0,1.9517,1.954,1.9594,1.9658,1.9704,1.9757,1.9811,1.9837,1.9898,1.9942,2.0007,2.0051,2.0138,2.0205,2.0277,2.0318,2.0343,2.0349,2.0359,2.0346,2.0325,2.0337,2.0286,2.0348,2.0347,2.0347,2.0347,2.0347,1.9534,1.957,1.9632,1.9692,1.9738,1.9788,1.9829,1.9875,1.993,2.0004,2.0031,2.0099,2.0163,2.0262,2.0303,2.0359,2.0361,2.0375,2.0379,2.0381,2.038,2.0316,2.0372,2.0372,2.0372,2.0372,2.0372,0,1.9569,1.9611,1.9665,1.9739,1.9787,1.9805,1.9866,1.9905,1.9964,2.0021,2.0075,2.0152,2.0217,2.0278,2.0347,2.038,2.0393,2.0396,2.0394,2.0403,2.0373,2.0358,2.0384,2.0384,2.0384,2.0384,2.0384,2.0384,1.9593,1.9656,1.9686,1.9773,1.9816,1.9881,1.9914,1.9961,2.0007,2.009,2.0144,2.0183,2.0242,2.0316,2.0377,2.0393,2.0417,2.0417,2.0437,2.0407,2.0405,2.0403,2.0389,2.0422,2.0422,2.0462,2.0463,2.0463]},{"header":{"parameterUnit":"m.s-1","parameterCategory":1,"la1":30.2991,"la2":30.254,"lo1":-89.0895,"lo2":-89.0444,"dy":0.0017,"dx":0.0017,"nx":28,"ny":28,"refTime":"2025-07-20T09:00:00:Z","depth":0,"parameterNumber":3,"parameterNumberName":"V-component_of_WINDS"},"data":[0,0,0,0,0,0,0,0,0,0,0,0,0,0,0,0,0,0,0,0,0,0,0,0,0,0,0,0,0,0,0,0,0,0,0,0,0,0,0,0,0,0,0,0,0,0,0,0,0,0,0,0,0,0,0,0,0,0,3.6604,3.6605,0,3.6657,3.6658,3.6659,3.6642,3.6641,3.664,3.6639,3.6691,3.6694,3.6696,0,0,0,0,0,0,0,0,0,0,0,0,0,3.6483,3.6485,3.6604,3.6605,3.6605,3.6657,3.6658,3.6659,3.6642,3.6641,3.6639,3.6638,3.6691,3.6693,3.6696,0,0,0,0,0,0,0,0,0,0,0,0,0,3.6536,3.6486,3.6604,3.6603,3.6604,3.6657,3.6658,3.6659,3.6642,3.6641,3.6639,3.6637,3.669,3.6693,3.6697,3.6753,0,0,3.6708,3.671,0,0,0,0,0,0,0,0,3.6533,3.654,3.6603,3.6604,3.6604,3.6641,3.6635,3.669,3.6643,3.6628,3.6639,3.6637,3.6676,3.6681,3.6694,3.6756,3.6758,3.6708,3.6711,3.6712,3.6713,0,0,0,0,0,0,0,3.6529,3.6538,3.6625,3.6604,3.6605,3.6599,3.6604,3.6645,3.6661,3.6629,3.6628,3.6634,3.6676,3.6691,3.6695,3.6759,3.6708,3.6711,3.6714,3.6715,3.6864,3.6865,0,0,0,0,0,0,3.6526,3.6535,3.6623,3.6627,3.6564,3.6602,3.6609,3.6631,3.666,3.6663,3.6636,3.6633,3.6685,3.6691,3.6697,3.6761,3.6712,3.6716,3.6718,3.6862,3.6864,3.6866,0,0,0,0,0,0,3.6523,3.6534,3.6621,3.6581,3.6591,3.6606,3.6631,3.6633,3.6648,3.6665,3.6668,3.6648,3.6684,3.6692,3.6738,3.6763,3.6717,3.6721,3.686,3.6862,3.6865,3.6893,0,0,0,0,0,0,3.652,3.6533,3.6556,3.6581,3.6594,3.6663,3.6633,3.6635,3.6654,3.6652,3.6678,3.668,3.6683,3.6733,3.6742,3.6767,3.6723,3.6858,3.6861,3.6864,3.689,3.6896,3.6901,0,0,0,0,0,3.6515,3.6563,3.6557,3.6568,3.6623,3.6665,3.6672,3.6675,3.6657,3.6679,3.6689,3.668,3.6759,3.6738,3.6748,3.6775,3.6856,3.686,3.6864,3.6887,3.6895,3.6901,0,0,0,0,0,0,3.6541,3.6566,3.656,3.6618,3.6639,3.6662,3.669,3.6684,3.671,3.6707,3.6709,3.6715,3.6761,3.6773,3.6749,3.6828,3.6805,3.6811,3.6819,3.6826,3.6832,3.6827,3.6726,0,0,0,0,0,3.6553,3.6586,3.6606,3.6654,3.6665,3.6675,3.6694,3.6694,3.6716,3.6725,3.6739,3.676,3.6789,3.6809,3.6837,3.6892,3.6895,3.6915,3.692,3.6925,3.693,3.6955,3.6963,3.6879,3.6879,3.6879,0,0,3.6578,3.6596,3.6617,3.6659,3.6676,3.6707,3.6683,3.672,3.6742,3.6731,3.6774,3.6785,3.6808,3.6858,3.688,3.6869,3.6954,3.693,3.6934,3.6936,3.696,3.6968,3.6975,3.6881,3.6881,3.688,0,0,3.664,3.6659,3.6698,3.6715,3.674,3.6746,3.6755,3.6779,3.6785,3.6829,3.6819,3.6846,3.6898,3.6913,3.6928,3.6991,3.6982,3.7,3.703,3.7055,3.7061,3.7067,3.7086,3.7093,3.7005,3.7005,3.7005,0,3.6668,3.6717,3.672,3.6755,3.6772,3.6762,3.68,3.6816,3.6849,3.686,3.6847,3.6909,3.6924,3.6975,3.699,3.7003,3.7011,3.6997,3.706,3.7066,3.7072,3.709,3.7097,3.7007,3.7007,3.7007,3.7006,0,3.6748,3.6782,3.6811,3.6841,3.6862,3.6899,3.6905,3.6925,3.6922,3.6929,3.6971,3.6989,3.7019,3.7031,3.703,3.708,3.7072,3.706,3.7036,3.7081,3.7098,3.7105,3.701,3.7009,3.7008,3.7008,0,0,3.6829,3.6858,3.6868,3.688,3.6905,3.693,3.6965,3.6993,3.7009,3.7031,3.7058,3.71,3.7088,3.7104,3.7104,3.7126,3.717,3.711,3.7111,3.7118,3.7222,3.7229,3.7237,3.7164,3.7166,3.7167,3.7219,0,3.6891,3.6952,3.6953,3.7009,3.7037,3.7026,3.7056,3.7073,3.7079,3.7103,3.711,3.7138,3.7122,3.7131,3.7152,3.716,3.719,3.7157,3.7187,3.7188,3.7179,3.7247,3.7255,3.7304,3.7226,3.7227,3.7228,0,3.6971,3.6994,3.7052,3.7068,3.708,3.7107,3.713,3.7155,3.7172,3.7175,3.7192,3.7188,3.722,3.7196,3.7239,3.7216,3.7228,3.7233,3.7235,3.7237,3.7209,3.7247,3.732,3.7326,3.7239,3.7238,3.7237,0,3.7019,3.7065,3.7104,3.7115,3.7136,3.7154,3.7164,3.718,3.7196,3.7217,3.7226,3.7251,3.7263,3.7281,3.7282,3.7265,3.7324,3.7301,3.7325,3.7325,3.7337,3.7336,3.741,3.7349,3.7349,3.7349,3.7349,0,3.7086,3.7121,3.7125,3.7149,3.7187,3.7187,3.7223,3.7231,3.7245,3.7269,3.7262,3.7284,3.7285,3.7307,3.7308,3.7341,3.7348,3.7349,3.7349,3.7349,3.7348,3.7355,3.7351,3.7351,3.7351,3.735,3.735,0,3.7147,3.7151,3.7192,3.7208,3.7213,3.7239,3.7252,3.7273,3.7278,3.7307,3.7314,3.7321,3.7346,3.7349,3.738,3.738,3.7419,3.7416,3.7413,3.7411,3.7434,3.743,3.7513,3.7523,3.7458,3.7459,3.7459,0,3.7188,3.7214,3.7231,3.7246,3.7256,3.7281,3.7296,3.7296,3.7312,3.7332,3.735,3.7374,3.7393,3.7433,3.744,3.7462,3.7458,3.7485,3.7461,3.7459,3.7455,3.7452,3.7453,3.749,3.749,3.7491,3.7491,0,3.726,3.7259,3.7282,3.7303,3.7321,3.7338,3.7354,3.7367,3.7368,3.7386,3.7411,3.7426,3.7454,3.7477,3.7498,3.7506,3.7498,3.7499,3.7505,3.7504,3.75,3.7499,3.7422,3.7497,3.7496,3.7496,3.7496,3.7495,3.731,3.733,3.7344,3.7368,3.738,3.7394,3.7413,3.7419,3.744,3.7463,3.7462,3.7488,3.7502,3.7529,3.7538,3.7558,3.7549,3.7558,3.756,3.7562,3.7563,3.7498,3.7562,3.7562,3.7562,3.7562,3.7561,0,3.7378,3.7385,3.7407,3.7428,3.7446,3.7437,3.7453,3.7468,3.7491,3.7505,3.7523,3.7549,3.7571,3.7578,3.7599,3.7612,3.7609,3.7617,3.7615,3.7617,3.7572,3.7563,3.762,3.762,3.762,3.762,3.762,3.762,3.7415,3.7448,3.7449,3.7487,3.7495,3.752,3.7529,3.7541,3.7552,3.7581,3.7599,3.7603,3.7613,3.7634,3.7652,3.7653,3.766,3.7669,3.7669,3.7626,3.762,3.7615,3.7606,3.7671,3.7671,3.7712,3.7712,3.7713]}]]